CW9259 Weather Reports


Display with metric or nautical units.
time (UTC)temp
F
wind
direction
speed
MPH
gust
MPH
rain 1hr
in
rain 24hr
in
rain mn
in
humidity
%
barometer
mb
20260831230002 62 348 1.0 4.0 0.00 0.00 0.00 70 1012.2
20260831224630 62 304 1.0 5.0 0.00 0.00 0.00 72 1012.1
20260831223134 63 250 2.0 4.0 0.00 0.00 0.00 75 1012.1
20260831221608 64 335 3.0 5.0 0.00 0.00 0.00 74 1012.1
20260831220132 64 290 1.0 4.0 0.00 0.00 0.00 75 1012.1
20260831214603 66 299 1.0 2.0 0.00 0.00 0.00 74 1012.1
20260831213135 66 350 2.0 5.0 0.00 0.00 0.00 71 1012.0
20260831211608 66 315 1.0 4.0 0.00 0.00 0.00 70 1011.9
20260831210003 66 291 1.0 3.0 0.00 0.00 0.00 72 1011.9
20260831204601 67 301 1.0 4.0 0.00 0.00 0.00 73 1011.7
20260831203132 67 284 0.0 3.0 0.00 0.00 0.00 73 1011.6
20260831201600 69 360 1.0 3.0 0.00 0.00 0.00 73 1011.4
20260831200142 69 336 4.0 5.0 0.00 0.00 0.00 74 1011.2
20260831194611 68 360 3.0 5.0 0.00 0.00 0.00 78 1011.2
20260831193200 70 98 1.0 4.0 0.00 0.00 0.00 76 1011.0
20260831191559 71 324 1.0 4.0 0.00 0.00 0.00 75 1010.8
20260831190145 72 302 1.0 3.0 0.00 0.00 0.00 74 1010.7
20260831184600 73 330 0.0 4.0 0.00 0.00 0.00 74 1010.4
20260831183130 74 338 2.0 4.0 0.00 0.00 0.00 72 1010.2
20260831181558 76 10 1.0 3.0 0.00 0.00 0.00 71 1010.0
20260831180127 78 10 0.0 2.0 0.00 0.00 0.00 69 1009.9
20260831174559 80 10 1.0 3.0 0.00 0.00 0.00 64 1009.7
20260831173127 82 340 0.0 2.0 0.00 0.00 0.00 61 1009.7
20260831171601 85 341 2.0 3.0 0.00 0.00 0.00 56 1009.7
20260831170142 88 53 3.0 7.0 0.00 0.00 0.00 49 1009.7
20260831164604 89 86 2.0 6.0 0.00 0.00 0.00 49 1009.7
20260831163132 90 69 4.0 8.0 0.00 0.00 0.00 48 1009.6
20260831161558 91 86 0.0 2.0 0.00 0.00 0.00 51 1009.6
20260831160137 92 136 0.0 2.0 0.00 0.00 0.00 45 1009.6
20260831154619 91 134 0.0 4.0 0.00 0.00 0.00 46 1009.8
20260831153133 91 218 1.0 3.0 0.00 0.00 0.00 46 1009.8
20260831151700 90 173 1.0 4.0 0.00 0.00 0.00 47 1009.9
20260831150130 89 118 2.0 6.0 0.00 0.00 0.00 47 1009.9
20260831144559 89 84 2.0 7.0 0.00 0.00 0.00 50 1010.0
20260831143135 89 225 1.0 5.0 0.00 0.00 0.00 50 1010.1
20260831141600 89 106 2.0 7.0 0.00 0.00 0.00 50 1010.2
20260831140138 88 130 4.0 8.0 0.00 0.00 0.00 51 1010.2
20260831134602 88 126 4.0 9.0 0.00 0.00 0.00 50 1010.3
20260831133139 88 45 6.0 11.0 0.00 0.00 0.00 52 1010.3
20260831131609 88 117 1.0 3.0 0.00 0.00 0.00 52 1010.6
20260831130138 87 144 1.0 10.0 0.00 0.00 0.00 53 1010.7
20260831124604 87 184 3.0 5.0 0.00 0.00 0.00 56 1010.8
20260831123126 86 69 3.0 5.0 0.00 0.00 0.00 54 1010.9
20260831121608 86 126 4.0 7.0 0.00 0.00 0.00 56 1011.0
20260831120002 85 95 3.0 8.0 0.00 0.00 0.00 55 1011.2
20260831114600 85 148 3.0 8.0 0.00 0.00 0.00 58 1011.3
20260831113200 85 43 2.0 6.0 0.00 0.00 0.00 54 1011.4
20260831111600 85 122 2.0 8.0 0.00 0.00 0.00 57 1011.6
20260831110124 84 79 1.0 8.0 0.00 0.00 0.00 56 1011.8
20260831104559 84 117 3.0 9.0 0.00 0.00 0.00 57 1011.8
20260831103009 84 169 1.0 8.0 0.00 0.00 0.00 56 1011.9
20260831101604 84 120 2.0 8.0 0.00 0.00 0.00 58 1012.2
20260831100000 82 132 3.0 7.0 0.00 0.00 0.00 60 1012.1
20260831094631 80 128 2.0 5.0 0.00 0.00 0.00 64 1012.4
20260831093149 80 191 1.0 5.0 0.00 0.00 0.00 61 1012.5
20260831091615 80 166 1.0 6.0 0.00 0.00 0.00 61 1012.4
20260831090120 79 116 6.0 10.0 0.00 0.00 0.00 63 1012.5
20260831084604 78 135 1.0 6.0 0.00 0.00 0.00 67 1012.4
20260831081601 76 130 3.0 6.0 0.00 0.00 0.00 69 1012.4
20260831080134 75 165 2.0 8.0 0.00 0.00 0.00 72 1012.4
20260831074559 74 137 2.0 5.0 0.00 0.00 0.00 76 1012.5
20260831073133 72 151 2.0 5.0 0.00 0.00 0.00 77 1012.2
20260831071613 70 225 4.0 7.0 0.00 0.00 0.00 81 1012.4
20260831070001 70 134 1.0 4.0 0.00 0.00 0.00 82 1012.4
20260831064613 69 186 0.0 3.0 0.00 0.00 0.00 82 1012.1
20260831063137 68 24 0.0 5.0 0.00 0.00 0.00 81 1012.5
20260831061559 66 39 0.0 3.0 0.00 0.00 0.00 88 1012.4
20260831060002 64 258 0.0 3.0 0.00 0.00 0.00 89 1012.4
20260831054600 64 35 1.0 2.0 0.00 0.00 0.00 89 1012.4
20260831053131 63 35 1.0 2.0 0.00 0.00 0.00 90 1012.4
20260831051613 62 32 1.0 3.0 0.00 0.00 0.00 89 1012.2
20260831050002 62 262 4.0 6.0 0.00 0.00 0.00 89 1012.0
20260831044605 62 280 1.0 3.0 0.00 0.00 0.00 89 1011.9
20260831043144 62 281 2.0 4.0 0.00 0.00 0.00 89 1011.9
20260831041600 62 279 1.0 3.0 0.00 0.00 0.00 88 1011.7
20260831040002 62 334 0.0 2.0 0.00 0.00 0.00 88 1011.7
20260831034600 62 351 2.0 4.0 0.00 0.00 0.00 88 1011.7
20260831033142 63 295 0.0 2.0 0.00 0.00 0.00 88 1011.8
20260831031559 63 286 2.0 4.0 0.00 0.00 0.00 87 1011.8
20260831030135 63 317 1.0 3.0 0.00 0.00 0.00 87 1011.7
20260831024601 63 288 0.0 0.0 0.00 0.00 0.00 88 1011.8
20260831023127 63 288 0.0 1.0 0.00 0.00 0.00 87 1011.9
20260831021601 63 287 1.0 3.0 0.00 0.00 0.00 86 1012.0
20260831020004 64 290 1.0 2.0 0.00 0.00 0.00 86 1011.8
20260831014600 65 288 2.0 3.0 0.00 0.00 0.00 85 1012.0
20260831013136 65 325 0.0 2.0 0.00 0.00 0.00 84 1011.9
20260831011607 65 327 1.0 4.0 0.00 0.00 0.00 84 1012.0
20260831010003 65 306 0.0 0.0 0.00 0.00 0.00 86 1012.1
20260831004600 66 304 0.0 3.0 0.00 0.00 0.00 85 1012.0
20260831003123 66 307 0.0 2.0 0.00 0.00 0.00 85 1012.1
20260831001600 67 307 1.0 3.0 0.00 0.00 0.00 84 1012.2
20260831000001 67 340 0.0 2.0 0.00 0.00 0.00 84 1012.2
20260830234611 67 346 1.0 3.0 0.00 0.00 0.00 85 1012.4
20260830233147 67 330 1.0 2.0 0.00 0.00 0.00 85 1012.5
20260830231559 67 329 1.0 2.0 0.00 0.00 0.00 85 1012.5